Regional Weather Roundup
Issued by NWS Sioux Falls, SD

Home | Current Version | Previous Version | Graphics & Text | Print | Product List | Glossary On
Versions: 1 2 3 4 5 6 7 8 9 10 11 12 13 14 15 16 17 18 19 20 21 22 23 24 25 26 27 28 29 30 31 32 33 34 35 36 37 38 39 40 41 42 43 44 45 46 47 48 49 50
000
ASUS43 KFSD 220802
RWRFSD

WEATHER ROUNDUP FOR SE SOUTH DAKOTA/SW MINNESOTA/NW IOWA
NATIONAL WEATHER SERVICE SIOUX FALLS SD
200 AM CST WED FEB 22 2017

NOTE: "FAIR" INDICATES FEW OR NO CLOUDS BELOW 12,000 FEET WITH NO
SIGNIFICANT WEATHER AND OR OBSTRUCTIONS TO VISIBILITY.


SDZ038>040-050-052>070-220900-
SOUTHEAST SOUTH DAKOTA

CITY           SKY/WX    TMP DP  RH WIND       PRES   REMARKS
BROOKINGS      CLOUDY    47  38  71 E7        29.62F
CHAMBERLAIN    CLEAR     46  39  77 SW8       29.65R
HURON          CLOUDY    43  40  89 N6        29.60F
MADISON        FAIR      45  39  81 NE10      29.63S
MITCHELL       CLOUDY    41  35  79 N5        29.62F
SIOUX FALLS    CLOUDY    41  37  86 SW6       29.62F
WINNER         FAIR      49  36  61 S10       29.66F
YANKTON        PTCLDY    52  30  43 CALM      29.65R
$$

MNZ071-072-080-081-089-090-097-098-220900-
SOUTHWEST MINNESOTA

CITY           SKY/WX    TMP DP  RH WIND       PRES   REMARKS
FAIRMONT       PTCLDY    41  37  86 S7        29.67F
JACKSON        MOCLDY    45  34  65 S3        29.67R
LUVERNE        CLOUDY    37  32  81 S6        29.63F
MARSHALL       LGT RAIN  49  43  80 NW8       29.65R
MONTEVIDEO     LGT RAIN  43  43 100 NE9       29.64F
PIPESTONE      CLOUDY    46  34  61 NE3       29.62F
REDWOOD FALLS  LGT RAIN  46  40  79 NW13      29.67R
TRACY          PTCLDY    50  41  71 NW13G24   29.69R
WINDOM         PTCLDY    45  37  76 S8G17     29.65S
WORTHINGTON    PTCLDY    46  36  68 S6        29.64F
$$

IAZ001>003-012>014-020>022-031-032-NEZ013-014-SDZ071-220900-
NORTHWEST IOWA

CITY           SKY/WX    TMP DP  RH WIND       PRES   REMARKS
CHEROKEE       CLEAR     46  35  67 S8        29.66F
DENISON        CLEAR     48  36  61 S15       29.69F
ESTHERVILLE    MOCLDY    44  38  79 W7        29.68R
LE MARS        CLEAR     46  36  66 S9        29.66F
ORANGE CITY    CLEAR     43  36  75 S6        29.64F
SHELDON        CLEAR     48  37  66 CALM      29.64F
SIOUX CITY     CLEAR     40  34  79 SE9       29.67F
SPENCER        PTCLDY    46  36  68 NW14G23   29.68R
STORM LAKE     CLEAR     48  37  66 S13       29.68S
$$

ABBREVIATIONS USED IN REMARKS
   TC - TEMPERATURE IN CELSIUS
  WCI - WIND CHILL INDEX
   HX - HEAT INDEX
  VSB - VISIBILITY




USA.gov is the U.S. government's official web portal to all federal, state and local government web resources and services.